Moose, Wyoming, United States (83012)
Lat: 43.66N, Lon: 110.72W
Wx Zone: WYZ013
Local Info
Past Weather Observations for Thursday, September 22, 2016

NOTE: This archive is for the closest National Weather Service station to Moose. Information may differ from the station used for current weather conditions.

Click here for Long-term Archive

Time Weather Temperature Dewpoint Humidity Pressure Winds Precip Visibility
23:55
Overcast
48°F / 9°C 48°F / 9°C 100% 29.8 in
(1009 mb)
Calm 0.02 in
(0.51 mm)
10SM
23:35
Overcast
48°F / 9°C 48°F / 9°C 100% 29.83 in
(1010 mb)
Calm 0.01 in
(0.25 mm)
10SM
23:15
Overcast
48°F / 9°C 48°F / 9°C 100% 29.83 in
(1010 mb)
Calm 0.01 in
(0.25 mm)
10SM
22:55
Overcast
48°F / 9°C 48°F / 9°C 100% 29.83 in
(1010 mb)
Calm 0.09 in
(2.29 mm)
9SM
22:35
Overcast
48°F / 9°C 48°F / 9°C 100% 29.86 in
(1011 mb)
SW 5.8 mph
(SW 9 kph)
0.03 in
(0.76 mm)
5SM
22:15
Overcast
48°F / 9°C 48°F / 9°C 100% 29.86 in
(1011 mb)
Calm 0.01 in
(0.25 mm)
10SM
21:55
Overcast
48°F / 9°C 48°F / 9°C 100% 29.86 in
(1011 mb)
NE 5.8 mph
(NE 9 kph)
- 10SM
21:35
Overcast
48°F / 9°C 48°F / 9°C 100% 29.86 in
(1011 mb)
NE 5.8 mph
(NE 9 kph)
- 10SM
21:15
Overcast
48°F / 9°C 48°F / 9°C 100% 29.86 in
(1011 mb)
Calm - 10SM
20:55
Overcast
48°F / 9°C 48°F / 9°C 100% 29.89 in
(1012 mb)
Calm 0.02 in
(0.51 mm)
10SM
20:35
Overcast
48°F / 9°C 48°F / 9°C 100% 29.89 in
(1012 mb)
S 4.6 mph
(S 7 kph)
0.01 in
(0.25 mm)
10SM
20:15
Overcast
48°F / 9°C 46°F / 8°C 94% 29.89 in
(1012 mb)
S 5.8 mph
(S 9 kph)
- 10SM
19:55
Overcast
48°F / 9°C 48°F / 9°C 100% 29.89 in
(1012 mb)
SW 3.5 mph
(SW 6 kph)
0.05 in
(1.27 mm)
10SM
19:11
Mostly Cloudy
Showers In Vicinity
48°F / 9°C 48°F / 9°C 100% 29.89 in
(1012 mb)
S 9.2 mph
(S 15 kph)
- 10SM
18:21
Mostly Cloudy
Thunder Storms
54°F / 12°C 48°F / 9°C 82% 29.83 in
(1010 mb)
Calm - 6SM
17:49
Mostly Cloudy
Thunder Storms
59°F / 15°C 46°F / 8°C 63% 29.8 in
(1009 mb)
ESE 9.2 mph
(ESE 15 kph)
- 10SM
16:52
Mostly Cloudy
59°F / 15°C 52°F / 11°C 77% 29.8 in
(1009 mb)
SSW 6.9 mph
(SSW 11 kph)
-
15:47
Mostly Cloudy
63°F / 17°C 50°F / 10°C 64% 29.77 in
(1008 mb)
SSW 5.8 mph
(SSW 9 kph)
- 10SM
14:45
Partly Cloudy
63°F / 17°C 54°F / 12°C 73% 29.8 in
(1009 mb)
SSW 8.1 mph
(SSW 13 kph)
- 10SM
13:46
Partly Cloudy
64°F / 18°C 48°F / 9°C 56% 29.8 in
(1009 mb)
Calm - 10SM
12:56
Mostly Cloudy
63°F / 17°C 48°F / 9°C 59% 29.83 in
(1010 mb)
SW 4.6 mph
(SW 7 kph)
- 10SM
11:45
Mostly Cloudy
57°F / 14°C 37°F / 3°C 48% 29.89 in
(1012 mb)
Calm - 10SM
10:51
Mostly Cloudy
54°F / 12°C 46°F / 8°C 77% 29.92 in
(1013 mb)
Calm - 10SM
09:51
Mostly Cloudy
54°F / 12°C 50°F / 10°C 88% 29.95 in
(1014 mb)
SSE 3.5 mph
(SSE 6 kph)
- 10SM
08:55
Overcast
52°F / 11°C 50°F / 10°C 94% 29.95 in
(1014 mb)
Calm - 10SM
07:45
Mostly Cloudy
50°F / 10°C 48°F / 9°C 94% 29.95 in
(1014 mb)
SW 6.9 mph
(SW 11 kph)
- 10SM
06:45
Mostly Cloudy
50°F / 10°C 48°F / 9°C 94% 29.95 in
(1014 mb)
Calm - 10SM
05:55
Overcast
48°F / 9°C 48°F / 9°C 100% 29.98 in
(1015 mb)
SSW 3.5 mph
(SSW 6 kph)
- 10SM
05:50
Overcast
48°F / 9°C 48°F / 9°C 100% 29.98 in
(1015 mb)
Calm - 10SM
05:35
Overcast
48°F / 9°C 48°F / 9°C 100% 29.98 in
(1015 mb)
SSW 4.6 mph
(SSW 7 kph)
- 10SM
05:15
Overcast
48°F / 9°C 48°F / 9°C 100% 29.98 in
(1015 mb)
W 3.5 mph
(W 6 kph)
- 10SM
04:55
Overcast
50°F / 10°C 48°F / 9°C 94% 29.98 in
(1015 mb)
S 6.9 mph
(S 11 kph)
- 10SM
04:35
Overcast
50°F / 10°C 48°F / 9°C 94% 29.98 in
(1015 mb)
S 6.9 mph
(S 11 kph)
- 10SM
04:15
Overcast
50°F / 10°C 50°F / 10°C 100% 29.98 in
(1015 mb)
SE 8.1 mph
(SE 13 kph)
- 8SM
03:55
Overcast
50°F / 10°C 50°F / 10°C 100% 29.95 in
(1014 mb)
SSE 8.1 mph
(SSE 13 kph)
0.03 in
(0.76 mm)
10SM
03:35
Overcast
50°F / 10°C 50°F / 10°C 100% 29.95 in
(1014 mb)
Calm 0.03 in
(0.76 mm)
5SM
03:15
Overcast
50°F / 10°C 50°F / 10°C 100% 29.95 in
(1014 mb)
SW 4.6 mph
(SW 7 kph)
- 10SM
02:55
Overcast
50°F / 10°C 50°F / 10°C 100% 29.95 in
(1014 mb)
Calm 0.01 in
(0.25 mm)
10SM
02:35
Overcast
50°F / 10°C 50°F / 10°C 100% 29.95 in
(1014 mb)
Calm 0.01 in
(0.25 mm)
10SM
02:15
Overcast
50°F / 10°C 50°F / 10°C 100% 29.95 in
(1014 mb)
Calm 0.01 in
(0.25 mm)
10SM
01:55
Overcast
50°F / 10°C 50°F / 10°C 100% 29.95 in
(1014 mb)
W 3.5 mph
(W 6 kph)
0.01 in
(0.25 mm)
10SM
01:35
Overcast
50°F / 10°C 50°F / 10°C 100% 29.95 in
(1014 mb)
Calm - 10SM
01:15
Overcast
50°F / 10°C 50°F / 10°C 100% 29.95 in
(1014 mb)
E 3.5 mph
(E 6 kph)
- 10SM
00:55
Overcast
50°F / 10°C 50°F / 10°C 100% 29.95 in
(1014 mb)
Calm 0.06 in
(1.52 mm)
10SM
00:35
Overcast
50°F / 10°C 50°F / 10°C 100% 29.98 in
(1015 mb)
Calm 0.05 in
(1.27 mm)
9SM
00:15
Overcast
50°F / 10°C 50°F / 10°C 100% 29.98 in
(1015 mb)
Calm 0.04 in
(1.02 mm)
10SM
Time Weather Temperature Dewpoint Humidity Pressure Winds Precip Visibility


Weather for websites

WeatherForYou.com, LLC is not responsible for any damages or problems caused by this service. Current weather conditions are obtained from the closest station including government and personal stations which may have varying degrees of accuracy. Weather forecasts are derived from the NOAA NDFD. Like all things, this site belongs to Jesus Christ... He just trusts us to maintain it. If you have any questions or comments email webmaster@weatherforyou.com

Copyright © 2016, WeatherForYou.com LLC. All rights reserved.